www.pogodaiklimat.ru
Время
(UTC), дата
18 13.10
21 13.10
00 14.10
03 14.10
06 14.10
09 14.10
12 14.10
15 14.10
18 14.10
21 14.10
00 15.10
03 15.10
06 15.10
09 15.10
12 15.10
15 15.10
18 15.10
21 15.10
00 16.10
03 16.10
06 16.10
09 16.10
12 16.10
15 16.10
18 16.10
21 16.10
00 17.10
03 17.10
06 17.10
09 17.10
12 17.10
15 17.10
18 17.10
21 17.10
00 18.10
03 18.10
06 18.10
09 18.10
12 18.10
15 18.10
18 18.10
21 18.10
00 19.10
03 19.10
06 19.10
09 19.10
12 19.10
15 19.10
18 19.10
21 19.10
00 20.10
03 20.10
06 20.10
09 20.10
12 20.10
15 20.10
Ветер
(напр.,м/с)
Видим. Явления Облачность Т
(С)
Тd
(С)
f
(%)
Тe
(С)
Тes
(С)
Комфортность P
(гПа)
Po
(гПа)
Тmin
(С)
Tmax
(С)
R
(мм)
R24
(мм)
S
(см)
ЮВ 3 10 км {дождь} 10/10 90 м
[Frnb Ns]
+5.4 +5.2 99 +2 +2 тепло 992.2 975.7
В 2 10 км слаб. дождь 10/10 90 м
[Frnb Ns]
+5.3 +4.8 97 +3 +3 тепло 992.2 975.7
ЮВ 2 10 км слаб. дождь 10/10 120 м
[Frnb Ns]
+5.4 +5.2 99 +3 +3 тепло 992.2 975.7
нст 1 10 км слаб. дождь 10/10 90 м
[Frnb Ns]
+5.1 +4.6 97 +4 +4 тепло 992.8 976.3 +4.7 7
нст 1 10 км слаб. дождь 10/10 90 м
[Frnb Ns]
+5.3 +4.6 95 +4 +4 тепло 994.2 977.6
С 3 12 км {дождь} 10/10 120 м
[Frnb]
+4.0 +3.3 95 0 0 по сезону 996.3 979.6
С 3 10 км слаб. ливневой дождь 10/10 150 м
[Cb cap]
+2.9 +2.1 94 -1 -1 по сезону 998.4 981.7
С 3 10 км {ливн. осадки} 10/10 210 м
[Cb cap]
+2.8 +2.0 94 -1 -1 по сезону 1000.1 983.3 +5.4 3
СЗ 2 4200 м слаб. ливневой дождь 10/10 210 м
[Cb cap]
+2.5 +2.0 96 -1 -1 по сезону 1001.2 984.4
СЗ 2 10 км {ливн. осадки} 10/10 210 м
[Cb cap]
+2.4 +1.9 96 -1 -1 по сезону 1001.6 984.8
СЗ 2 5000 м слаб. ливневой дождь 10/10 210 м
[Cb cap]
+2.1 +1.6 96 -1 -1 по сезону 1001.9 985.0
СЗ 2 10 км {ливн. осадки} 10/10 240 м
[Cb cap]
+1.9 +1.4 96 -2 -2 по сезону 1002.9 986.0 +1.9 0.6
СЗ 3 6000 м слаб. ливневой снег 10/10 210 м
[Cb cap]
+1.4 +0.6 94 -3 -3 по сезону 1004.0 987.1 +1.4
СЗ 3 12 км {ливн. осадки} 10/10 270 м
[Cb cap]
+1.7 +0.9 94 -3 -3 по сезону 1005.8 988.8
СЗ 2 10 км слаб. ливневой дождь 10/10 300 м
[Cb cap]
+2.0 +1.2 94 -1 -1 по сезону 1007.8 990.8
СЗ 3 10 км {ливн. осадки} 10/10 300 м
[Cb cap]
+1.8 +1.0 94 -3 -3 по сезону 1009.6 992.6 +2.0 0.8
СЗ 3 10 км {ливн. осадки} 10/10 300 м
[Sc]
+0.8 -0.0 94 -4 -4 по сезону 1011.5 994.4
СЗ 2 10 км 10/10 270 м
[Frnb]
+0.8 0.0 94 -3 -3 по сезону 1012.9 995.8
СЗ 2 10 км 10/10 210 м
[Frnb]
+0.8 0.0 94 -3 -3 по сезону 1014.2 997.1
СЗ 3 10 км 10/6 300 м
[Sc Ac trans]
+0.8 -0.0 94 -4 -4 по сезону 1015.8 998.6 +0.6
СЗ 3 10 км слаб. ливневой снег 10/8 330 м
[Cb cap Ac trans]
+1.2 -0.2 90 -3 -3 по сезону 1017.9 1000.6
СЗ 3 10 км слаб. ливневой снег 10/8 360 м
[Cb cap Ac trans]
+1.7 -0.2 87 -3 -3 по сезону 1019.5 1002.3
СЗ 3 12 км {ливн. осадки} 10/3 300 м
[Cb cap Ac trans]
+1.6 +0.2 90 -3 -3 по сезону 1021.3 1004.0
СЗ 3 10 км {ливн. осадки} 10/0
[Ac trans]
+0.4 -0.7 92 -4 -4 по сезону 1022.0 1004.6 +2.4 0.0
З 2 10 км {ливн. осадки} 10/3 300 м
[Sc Ac trans]
+0.3 -0.5 94 -3 -3 по сезону 1022.0 1004.6
З 1 10 км {ливн. осадки} 10/0
[Ac und]
-0.2 -0.5 98 -2 -2 по сезону 1022.4 1005.0
штиль 0 2400 м снег {ливн. осадки} 10/0
[As op]
-0.3 -0.6 98 -2 -2 по сезону 1022.6 1005.2
штиль 0 4500 м дымка {снег} 10/0
[As op]
-0.4 -0.7 98 -2 -2 по сезону 1022.6 1005.2 -0.4 1
штиль 0 12 км {снег} 10/10 120 м
[Frnb Ns]
-0.1 -0.7 96 -1 -1 по сезону 1021.8 1004.4
штиль 0 12 км 10/10 210 м
[Frnb Ns]
+0.1 -0.8 94 -1 -1 по сезону 1021.2 1003.8
нст 1 12 км 10/10 300 м
[Cb cap]
+0.3 -0.8 92 -2 -2 по сезону 1020.6 1003.2
В 2 10 км в посл. час ливневой снег 10/10 240 м
[Cb cap]
-0.6 -1.2 96 -5 -5 по сезону 1020.3 1002.9 +0.5 0.0
СВ 3 1500 м слаб. ливневой снег 10/10 210 м
[Cb cap]
-1.1 -1.5 97 -6 -6 по сезону 1020.4 1002.9
СВ 3 8000 м слаб. ливневой снег 10/10 240 м
[Cb cap]
-2.3 -2.6 98 -8 -8 прохладно 1021.1 1003.5
СВ 2 10 км {ливн. осадки} 10/10 1000 м
[Sc]
-3.2 -4.2 93 -7 -7 по сезону 1022.2 1004.6
СВ 4 10 км {ливн. осадки} 10/10 480 м
[Sc]
-5.3 -7.1 87 -12 -12 очень
холодно
1023.6 1005.8 -5.4 1 2
СВ 3 12 км в посл. час ливневой снег 10/10 330 м
[Cb cap]
-5.5 -7.3 87 -11 -11 холодно 1024.9 1007.1 -5.5
СВ 2 12 км 10/10 330 м
[Sc]
-5.5 -7.6 85 -10 -10 холодно 1025.4 1008.2
В 2 12 км 10/10 360 м
[Sc]
-5.2 -7.7 83 -9 -9 холодно 1026.7 1008.8
нст 1 10 км 10/10 450 м
[Sc]
-5.2 -7.7 83 -8 -8 прохладно 1027.5 1009.6 -5.0 0.0
Ю 2 10 км 10/10 400 м
[Sc]
-5.1 -7.6 83 -9 -9 прохладно 1028.3 1010.4
штиль 0 10 км 10/10 300 м
[Sc]
-5.6 -7.4 87 -7 -7 прохладно 1028.5 1010.5
Ю 2 10 км 10/10 360 м
[Sc]
-5.3 -6.7 90 -10 -10 холодно 1028.6 1010.7
Ю 2 10 км 10/10 150 м
[St]
-6.7 -7.5 94 -11 -11 холодно 1029.8 1011.8 -6.7 2
Ю 4 12 км 10/0
[Ci fib]
-3.8 -7.1 78 -10 -10 холодно 1028.7 1010.9 -7.6
Ю 4 12 км 10/0
[Ac trans Ci fib]
-0.9 -6.2 67 -6 -6 по сезону 1027.3 1009.7
Ю 4 12 км 9/0
[Ac trans Ci fib]
-0.6 -5.8 68 -6 -6 прохладно 1025.7 1008.2
Ю 5 10 км 10/6 600 м
[Sc Ac trans]
-1.6 -5.7 74 -8 -8 прохладно 1024.8 1007.3 -0.4
ЮЗ 4
{10}
10 км 10/10 600 м
[Sc]
-1.4 -4.7 78 -7 -7 прохладно 1023.3 1005.8
Ю 4 10 км 10/10 630 м
[Sc]
-1.6 -4.3 82 -7 -7 прохладно 1021.9 1004.4
Ю 5
{10}
10 км 10/10 450 м
[Sc]
-1.6 -4.0 84 -8 -8 по сезону 1019.4 1002.0
Ю 5
{10}
10 км 10/10 300 м
[Sc]
-1.4 -2.8 90 -8 -8 по сезону 1016.3 998.9 -1.6 2
Ю 4
{10}
6000 м слаб. переохл. дождь (гололёд) [диам. гололёда 0 мм] 10/10 240 м
[Frnb Ns]
-0.8 -1.5 95 -7 -7 по сезону 1013.1 995.9
ЮЗ 4
{11}
4500 м слаб. дождь [диам. гололёда 3 мм] 10/10 240 м
[Frnb Ns]
+0.2 -0.1 98 -5 -5 по сезону 1011.4 994.2
ЮЗ 4
{11}
6000 м слаб. дождь [диам. гололёда 3 мм] 10/10 210 м
[Frnb Ns]
+1.1 +0.8 98 -4 -4 по сезону 1010.9 993.8
ЮЗ 3 5000 м слаб. дождь 10/10 180 м
[Frnb Ns]
+1.6 +1.3 98 -3 -3 по сезону 1010.7 993.6 +1.6 2
Местоположение метеостанции Ухта (Коми, Россия): широта 63.55 долгота 53.82 высота над уровнем моря 137 м.
В архиве по умолчанию представлена погода в Ухте за последнюю неделю. Архивные данные за месяц целиком и за предыдущие месяцы, начиная с января 2011 года, Вы можете получить, выбрав интересующий диапазон дат из раскрывающегося списка и нажав кнопку "Найти!".
*Определитесь, кто Вы:
Внимание! Время в таблицах - всемирное. Для получения местного времени необходимо прибавить поправку, которая равна 3 ч.
Смотрите также архив погоды в соседних городах и на ближайших метеорологических станциях:
Партнеры нашего сайта:      
Пояснения к столбцам:
  • Ветер - указаны скорость ветра в м/с - средняя за 10 мин, порывы в срок и между сроками (в фигурных скобках) и направление, откуда дует ветер: С - северный,
  • СВ - северо-восточный, В - восточный, ЮВ - юго-восточный, Ю - южный, ЮЗ - юго-западный, З - западный, СЗ - северо-западный.
  • Видимость - горизонтальная дальность видимости в метрах или километрах. При видимости от 1 до 10 км при отсутствии осадков обычно наблюдается дымка, при ухудшении видимости до 1 км и менее - туман. В сухую погоду видимость может ухудшаться дымом, пылью или мглою.
  • Явления - указаны атмосферные явления, наблюдавшиеся в срок или в последний час перед сроком; фигурными скобками обозначены явления, наблюдавшиеся между сроками (за 1-3 часа до срока); квадратными скобками обозначены град или гололедные отложения с указанием их диаметра в мм.
  • Облачность - указаны через наклонную черту общая и нижняя облачность в баллах и высота нижней границы облаков в метрах; квадратными скобками обозначены формы облаков: Ci - перистые, Cs - перисто-слоистые, Cc - перисто-кучевые, Ac - высококучевые, As - высокослоистые, Sc - слоисто-кучевые, Ns - слоисто-дождевые, Cu - кучевые, Cb - кучево-дождевые. Подробнее классификацию облаков см. в Атласе облаков (PDF).
  • T - Температура воздуха - температура, измеренная на высоте 2 м над землей.
  • Td - Температура точки росы - температура, при понижении до которой содержащийся в воздухе водяной пар достигнет насыщения.
  • f - Относительная влажность воздуха - влажноcть воздуха, измеренная на высоте 2 м над землей.
  • Te - Эффективная температура - температура, которую ощущает одетый по сезону человек в тени. Характеристика душности погоды. При расчете учитывается влияние влажности воздуха и скорости ветра на теплоощущения человека.
  • Tes - Эффективная температура на солнце - температура, которую ощущает человек, с поправкой на солнечный нагрев. Характеристика знойности погоды. Зависит от высоты солнца над горизонтом, облачности и скорости ветра. Ночью, в пасмурную погоду, а также при ветре 12 м/с и более поправка равна нулю.
  • P - Атмосферное давление - приведенное к уровню моря атмосферное давление.
  • Po - Атмосферное давление - измеренное на уровне метеостанции атмосферное давление.
  • Tmin - Минимальная температура - минимум температуры воздуха на высоте 2 м над землей.
  • Tmax - Максимальная температура - максимум температуры воздуха на высоте 2 м над землей.
  • R - Количество осадков - Количество выпавших осадков за период времени, мм. При наведении курсора мыши на число - период времени, за который выпало указанное количество осадков.
  • R24 - Количество осадков - Количество выпавших осадков за 24 часа, мм.
  • S - Снежный покров - Высота снежного покрова, см. При наведении курсора мыши на число - состояние снежного покрова и степень покрытия местности в баллах.